Weather Service Report


425 
ASUS44 KMEG 301510
RWRMEG
MEMPHIS CWA HOURLY WEATHER ROUNDUP
NATIONAL WEATHER SERVICE MEMPHIS TN
1000 AM CDT TUE AUG 30 2016

...WEST TENNESSEE...
  
CITY           SKY/WX    TMP DP  RH WIND       PRES   REMARKS
MEMPHIS INTL   MOSUNNY   88  73  61 E6        30.08S HX  95           
NWS MEMPHIS      N/A     87 N/A N/A MISG        N/A                   
JACKSON        SUNNY     84  76  76 CALM      30.09F HX  93           
LEXINGTON      SUNNY     84  73  70 CALM      30.09S HX  91           
DYERSBURG      SUNNY     88  75  66 MISG      30.09S HX  97           
UNION CITY     SUNNY     82  79  89 CALM      30.09S HX  93           
PARIS          SUNNY     82  73  74 CALM      30.11S                  


...EASTERN ARKANSAS...
  
CITY           SKY/WX    TMP DP  RH WIND       PRES   REMARKS
JONESBORO      MOSUNNY   86  78  77 E6        30.09S HX  98           
WEST MEMPHIS   MOSUNNY   85  75  72 NE5       30.06F HX  93           
BATESVILLE     SUNNY     84  75  74 CALM      30.10F HX  92           
NEWPORT        MOSUNNY   84  78  82 NE6       30.09F HX  95           
WALNUT RIDGE   SUNNY     82  75  78 NE7       30.09F                  
BLYTHEVILLE    SUNNY     86  78  77 NE3       30.09S HX  98           
NW BLYTHEVILLE SUNNY     84  77  79 VRB3      30.08F HX  94           
SEARCY         SUNNY     86  78  77 E7        30.10S HX  98           
STUTTGART      SUNNY     84  77  79 NE6       30.07S HX  94           
PINE BLUFF     SUNNY     84  75  74 VRB6      30.06S HX  92           
MONTICELLO     SUNNY     87  75  67 NE6       30.05R HX  96           


...NORTH MISSISSIPPI...
  
CITY           SKY/WX    TMP DP  RH WIND       PRES   REMARKS
TUPELO         SUNNY     86  68  54 E5        30.08S                  
OXFORD         MOSUNNY   84  72  65 E5        30.09F                  
BATESVILLE     SUNNY     84  73  68 SE5       30.07S HX  90           
OLIVE BRANCH   MOSUNNY  N/A N/A N/A NE5       30.08S                  
TUNICA         SUNNY     82  73  74 NE6       30.07S                  
CLARKSDALE     SUNNY     84  77  79 CALM      30.06S HX  94           
CORINTH          N/A     84  72  65 VRB3      30.08S                  
GREENWOOD      SUNNY     86  71  60 E6        30.04S HX  91           
COLUMBUS       SUNNY     86  74  65 SE8       30.06S HX  94           
GOLDEN TRIANGL SUNNY     84  68  58 SE9       30.06S                  


...SOUTHEAST MISSOURI...
  
CITY           SKY/WX    TMP DP  RH WIND       PRES   REMARKS
KENNETT        SUNNY     84  77  79 NE6       30.08S HX  94           
WEST PLAINS    SUNNY     83  73  72 CALM      30.18R                  
POPLAR BLUFF   SUNNY     83  75  77 E5        30.11S HX  90           
CAPE GIRARDEAU SUNNY     84  73  69 E3        30.11F HX  90           


...NORTHWEST ALABAMA...
  
CITY           SKY/WX    TMP DP  RH WIND       PRES   REMARKS
MUSCLE SHOALS  SUNNY     83  70  64 SE3       30.11S                  


...MIDDLE TENNESSEE...
  
CITY           SKY/WX    TMP DP  RH WIND       PRES   REMARKS
NASHVILLE      SUNNY     84  73  70 CALM      30.11F HX  91           
CLARKSVILLE    SUNNY     82  72  71 CALM      30.11F                  
COLUMBIA       SUNNY     86  82  89 SW5       30.10S HX 105           


...WESTERN KENTUCKY...
  
CITY           SKY/WX    TMP DP  RH WIND       PRES   REMARKS
PADUCAH        SUNNY     86  73  65 CALM      30.10F HX  93           
FORT CAMPBELL  SUNNY     82  73  73 VRB3      30.11F                  


...CENTRAL ARKANSAS...
  
CITY           SKY/WX    TMP DP  RH WIND       PRES   REMARKS
LITTLE ROCK    MOSUNNY   87  75  67 E6        30.07S HX  96           


SKY/WX REPORTED AS FAIR MEANS FEW OR NO CLOUDS BELOW
12 THOUSAND FEET.

  


428 
ASUS44 KMEG 301510
RWRTN 
TENNESSEE HOURLY STATE WEATHER ROUNDUP
NATIONAL WEATHER SERVICE MEMPHIS TN
1000 AM CDT TUE AUG 30 2016

TNZ002-004-019-021-049-052-054-088>092-301600-
WEST TENNESSEE
  
CITY           SKY/WX    TMP DP  RH WIND       PRES   REMARKS
MEMPHIS INTL   MOSUNNY   88  73  61 E6        30.08S HX  95           
NWS MEMPHIS      N/A     87 N/A N/A MISG        N/A                   
JACKSON        SUNNY     84  76  76 CALM      30.09F HX  93           
DYERSBURG      SUNNY     88  75  66 MISG      30.09S HX  97           
UNION CITY     SUNNY     82  79  89 CALM      30.09S HX  93           
PARIS          SUNNY     82  73  74 CALM      30.11S                  
LEXINGTON      SUNNY     84  73  70 CALM      30.09S HX  91           
$$

TNZ008-025-027-028-033-062-065-066-301600-
NORTH MIDDLE TENNESSEE
  
CITY           SKY/WX    TMP DP  RH WIND       PRES   REMARKS
NASHVILLE      SUNNY     84  73  70 CALM      30.11F HX  91           
CLARKSVILLE    SUNNY     82  72  71 CALM      30.11F                  
SMYRNA         SUNNY     86  70  58 MISG      30.13S HX  90           
COOKEVILLE     SUNNY     86  72  62 S6        30.13S HX  92           
CROSSVILLE     SUNNY     80  65  59 CALM      30.19S                  
$$

TNZ061-075-076-078-094-096-097-301600-
SOUTH MIDDLE TENNESSEE
  
CITY           SKY/WX    TMP DP  RH WIND       PRES   REMARKS
FAYETTEVILLE   SUNNY     82  66  57 SE6       30.13S                  
TULLAHOMA      SUNNY     82  63  51 SE5       30.15S                  
WINCHESTER     SUNNY     84  66  54 SE3       30.13S                  
MCMINNVILLE    SUNNY     84  72  65 CALM      30.14S                  
COLUMBIA       SUNNY     86  82  89 SW5       30.10S HX 105           
SHELBYVILLE    SUNNY     88  70  55 CALM      30.13S HX  92           
$$

TNZ017-018-042-046-047-301600-
NORTHEAST TENNESSEE
  
CITY           SKY/WX    TMP DP  RH WIND       PRES   REMARKS
TRI CITIES     SUNNY     80  68  66 E5        30.18F                  
ELIZABETHTON   SUNNY     82  66  57 NE5       30.18S                  
$$

TNZ012-013-036-069-073-074-301600-
CENTRAL EAST TENNESSEE
  
CITY           SKY/WX    TMP DP  RH WIND       PRES   REMARKS
KNOXVILLE      SUNNY     84  65  52 CALM      30.13F                  
OAK RIDGE      SUNNY     82  69  64 VRB3      30.15                   
GATLINBURG     SUNNY     81  64  57 CALM      30.13F                  
MORRISTOWN     SUNNY     82  66  57 VRB6      30.15F                  
$$

TNZ083-085-099-301600-
SOUTHEAST TENNESSEE
  
CITY           SKY/WX    TMP DP  RH WIND       PRES   REMARKS
CHATTANOOGA    SUNNY     84  68  58 NE5       30.13S                  
$$

SKY/WX REPORTED AS FAIR MEANS FEW OR NO CLOUDS BELOW
12 THOUSAND FEET.

  

Return to Home page


Western Regional Climate Center, wrcc@dri.edu